SCP
0 0 0 0 0 0 1 1 1 1 1 1 1 1 1 1 1 1 1 1 1 1 1 1 0 0 0 0 1 1 1 1 1 1 1 1 1 0 0 0 0 0 0
0 0 0 0 0 0 1 1 1 1 1 1 1 1 1 1 1 1 1 1 1 1 1 1 1 0 0 1 1 1 1 1 1 1 1 0 0 0 0 0 0 0 0
0 0 0 0 0 0 1 1 1 1 1 1 1 1 1 1 1 1 1 1 1 0 0 0 0 0 0 1 1 1 1 1 1 1 0 0 0 1 1 1 1 1 1
0 0 0 0 0 1 1 1 1 1 1 1 1 1 1 1 1 1 1 1 1 0 0 0 0 0 0 1 1 1 1 1 1 1 1 0 0 1 1 1 1 1 1
0 0 0 0 0 1 1 1 1 1 1 1 1 1 1 1 1 1 0 0 0 0 0 0 0 0 0 1 1 1 1 1 1 1 1 0 0 1 1 1 1 1 1
0 0 0 0 1 1 1 1 1 1 1 1 1 1 1 1 1 0 0 0 0 0 0 0 0 0 0 0 1 1 1 1 1 1 0 0 0 0 1 1 1 1 1
0 0 1 1 1 1 1 1 0 0 1 1 0 0 1 1 1 1 1 0 0 0 0 0 0 0 0 0 0 1 1 1 1 0 0 0 0 0 0 0 1 1 1
0 0 1 1 1 1 1 0 0 0 0 0 0 1 1 1 1 1 1 0 0 0 0 0 0 0 0 0 0 1 1 1 0 0 0 0 0 0 0 0 1 1 1
0 0 0 0 0 0 0 0 0 0 0 0 0 1 1 1 1 1 1 0 0 0 0 0 0 0 0 0 0 1 1 1 0 0 0 0 0 0 0 1 1 1 1
0 0 0 0 0 0 0 0 0 0 0 0 0 1 1 1 1 1 1 0 0 0 0 0 0 0 0 0 0 0 1 0 0 0 0 0 0 1 1 1 1 1 1
0 0 0 0 0 0 0 0 0 0 0 0 0 1 1 1 1 1 1 0 0 0 0 0 0 0 0 0 0 0 0 0 0 0 0 0 1 1 1 1 1 1 1
0 0 0 0 0 0 0 0 0 0 0 0 0 0 0 1 0 0 0 0 0 0 0 0 0 0 0 0 0 0 0 0 0 0 0 0 1 1 0 0 1 1 1
0 0 0 0 0 0 0 0 0 0 0 0 0 0 0 0 0 0 0 0 0 0 0 0 0 0 0 0 0 0 0 0 0 0 0 0 1 1 0 0 1 1 1
0 0 0 0 0 0 0 0 0 0 0 0 0 0 0 0 0 0 0 0 0 0 0 0 0 0 0 0 0 0 0 0 0 0 0 0 1 1 1 1 1 1 1
0 0 0 0 0 0 0 0 0 0 0 0 0 0 0 0 0 0 0 0 0 0 0 0 0 0 0 0 0 0 0 0 0 0 0 0 1 1 1 1 1 1 0
0 0 0 0 0 0 0 0 0 0 0 0 0 0 0 0 0 0 0 0 0 0 0 0 0 0 0 0 0 0 0 0 0 0 0 0 0 1 1 1 1 0 0
0 0 0 0 0 0 0 0 0 0 0 0 0 0 0 0 0 0 0 0 0 0 0 0 0 0 0 0 0 0 0 0 0 0 0 0 0 0 1 1 1 1 0
0 0 0 0 0 0 0 0 0 0 0 0 0 0 0 0 0 0 0 0 0 0 0 0 0 0 0 0 0 0 0 0 0 0 0 0 0 0 0 1 1 1 1
0 0 0 0 0 0 0 0 0 0 0 0 0 0 0 0 0 0 0 0 0 0 0 0 0 0 0 0 0 0 0 0 0 0 0 0 0 0 0 0 1 1 0
0 0 0 0 0 0 0 0 0 0 0 0 0 0 0 0 0 0 0 0 0 0 0 0 0 0 0 0 0 0 0 0 0 0 0 0 0 0 0 0 0 0 0
0 0 0 0 0 0 0 0 0 0 0 0 0 0 0 0 0 0 0 0 0 0 0 0 0 0 0 0 0 0 0 0 0 0 0 0 0 0 0 0 0 0 0
1 1 0 0 0 0 0 0 0 0 0 0 0 0 0 0 0 0 0 0 0 0 0 0 0 0 0 0 0 0 0 0 0 0 0 0 0 0 0 0 0 0 0
1 1 0 0 0 0 0 0 0 0 0 0 0 0 0 0 0 0 0 0 0 0 0 0 0 0 0 0 0 0 0 0 0 0 0 0 0 0 0 0 0 0 0
1 1 1 0 0 0 0 0 0 0 0 0 0 0 0 0 0 0 0 0 0 0 0 0 0 0 0 0 0 0 0 0 0 0 0 0 0 0 0 0 0 0 0
2 1 1 0 0 0 0 0 0 0 0 0 0 0 0 0 0 0 0 0 0 0 0 0 0 0 0 0 0 0 0 0 0 0 0 0 0 0 0 0 0 0 0
2 2 1 1 0 0 0 0 0 0 0 0 0 0 0 0 0 0 0 0 0 0 0 0 0 0 0 0 0 0 0 0 0 0 0 0 0 0 0 0 0 0 0
Wind_Speed
1 1 5 7 8 8 8 8 9 9 9 10 10 11 11 12 12 11 11 11 11 11 11 11 11 10 10 10 10 9 9 9 9 8 8 8 8 8 8 7 6 4 7
4 2 6 7 8 8 9 9 9 9 9 10 10 11 11 12 12 11 11 11 11 11 11 11 11 10 10 10 9 9 9 9 9 9 8 7 8 7 7 7 6 4 7
5 3 5 7 8 8 9 9 9 9 10 10 10 11 11 11 11 11 11 11 11 11 11 10 10 10 10 9 9 9 10 10 10 9 8 4 4 7 7 6 7 7 7
6 4 5 7 8 8 9 9 9 10 10 10 10 10 11 11 11 11 11 11 11 11 10 10 10 10 10 10 9 10 10 10 9 8 4 3 3 6 6 6 7 7 7
5 4 5 8 9 9 9 9 9 10 10 10 10 10 10 11 11 11 11 11 10 10 10 10 9 9 9 9 10 10 10 10 9 7 4 3 3 6 7 7 6 7 7
5 4 5 8 9 9 9 9 9 10 10 10 10 10 10 11 11 10 10 10 10 10 9 9 9 9 9 9 10 10 10 10 8 4 3 3 2 6 7 7 7 6 7
5 4 5 8 9 9 9 9 9 10 10 9 10 10 10 10 10 10 9 9 9 9 9 9 8 9 9 10 10 10 10 10 6 4 3 3 3 7 7 7 7 7 7
6 5 5 8 9 9 9 9 9 9 9 9 9 9 9 9 9 9 9 9 8 9 8 8 8 8 9 9 10 10 10 9 6 5 3 3 6 7 7 7 7 7 7
6 5 3 3 5 8 9 9 8 8 8 8 8 8 8 8 8 8 8 8 8 8 8 8 8 8 8 8 9 10 10 10 5 3 4 3 6 8 8 8 8 7 7
5 4 4 3 2 2 3 7 8 7 7 7 7 7 6 6 6 6 6 7 7 7 7 7 7 7 7 8 9 10 9 8 4 4 2 3 8 8 8 9 8 7 7
4 3 4 3 2 2 3 4 4 5 5 5 4 4 4 2 2 3 4 6 6 6 6 6 6 7 7 8 9 9 7 3 4 3 2 6 8 9 9 9 8 8 8
4 4 3 3 3 2 2 2 1 1 1 1 1 2 2 2 1 2 4 5 5 5 5 5 6 6 5 4 6 7 4 4 3 3 4 8 9 9 9 9 8 8 8
4 4 4 4 4 3 2 2 1 0 1 1 1 2 2 2 1 2 1 2 2 3 2 4 4 3 3 3 3 3 4 4 3 3 4 9 10 10 9 9 8 8 8
3 3 4 4 4 3 2 2 1 1 1 1 1 2 3 2 2 1 1 1 1 1 2 2 2 3 3 3 4 4 4 3 3 2 4 9 10 10 10 10 10 10 10
3 2 4 5 4 3 2 1 2 1 2 1 1 2 3 3 2 2 2 2 2 2 2 2 3 3 3 4 4 5 4 4 4 3 3 9 10 10 10 10 10 10 11
3 3 4 4 5 4 3 2 2 1 1 2 2 2 3 3 3 2 2 2 2 2 2 2 3 3 3 3 4 4 4 4 4 4 3 5 9 10 10 10 10 9 10
3 3 4 4 4 4 3 3 2 2 2 2 2 3 3 3 4 3 3 3 2 2 3 3 4 3 4 4 4 4 4 3 3 3 3 3 4 8 10 10 10 9 9
4 4 4 5 4 4 3 2 2 2 3 2 2 2 3 4 4 4 3 3 2 3 3 3 3 3 3 3 3 3 3 3 4 3 3 3 3 3 6 9 10 10 9
5 5 4 4 4 4 3 3 3 3 3 2 2 2 3 4 4 4 3 3 3 3 3 3 3 3 3 3 2 3 3 3 3 4 3 3 3 3 3 6 8 9 9
4 5 5 4 4 4 3 3 3 3 2 2 2 3 3 3 4 4 3 3 3 3 3 3 3 3 2 2 3 4 3 3 3 3 3 2 3 3 3 4 4 6 8
4 4 4 4 4 3 2 2 2 2 1 1 1 3 3 3 4 4 3 3 3 3 3 3 3 3 3 2 3 3 4 4 4 3 3 3 3 3 4 4 3 3 4
4 4 4 4 4 4 3 2 2 2 1 1 1 2 2 3 3 4 4 3 3 3 3 3 3 2 1 1 2 3 2 4 4 4 3 3 3 2 3 4 4 4 3
5 5 5 4 4 4 4 3 2 2 2 1 1 1 1 2 3 4 4 4 3 3 3 2 2 3 2 0 1 3 3 1 1 2 2 2 2 2 2 2 3 3 3
5 4 5 5 4 4 4 4 4 3 2 2 2 1 1 2 3 4 4 4 3 3 3 2 2 2 3 1 0 1 2 3 3 0 2 2 2 2 1 2 2 2 2
5 4 4 5 4 3 4 5 4 3 2 1 1 2 1 1 2 3 4 3 3 2 3 2 2 2 2 2 1 1 1 1 2 3 0 2 2 2 1 1 1 1 1
3 3 4 5 4 3 4 4 5 5 4 3 2 2 1 1 1 2 3 3 3 3 3 3 3 2 2 2 2 2 2 2 2 2 2 1 1 2 1 1 1 1 1
Wind_Direction
178 201 121 109 106 105 103 101 98 97 94 90 89 91 90 91 90 87 86 86 85 84 82 83 84 81 80 80 80 79 77 80 86 83 83 83 84 87 88 89 88 85 94
159 158 115 107 106 106 103 102 103 100 98 94 93 93 93 92 90 88 87 87 85 84 83 82 81 79 77 77 78 78 79 82 85 81 80 78 81 89 94 94 96 95 98
137 132 118 113 111 109 106 104 103 102 101 98 96 95 94 95 94 91 89 87 86 83 84 83 81 78 76 74 74 76 77 81 81 77 73 64 72 85 95 97 96 94 95
133 130 122 118 114 111 109 107 103 104 104 102 98 97 97 98 97 93 91 88 85 82 81 81 80 77 75 73 74 75 75 77 78 74 65 53 54 84 93 95 95 94 94
127 125 125 120 116 113 112 111 107 107 107 106 103 101 100 99 98 94 92 89 85 83 80 79 78 76 73 73 75 74 74 73 75 68 57 48 45 83 89 90 91 92 94
129 129 131 125 122 119 117 115 112 111 111 110 107 106 102 99 97 95 95 92 89 86 82 79 76 75 72 71 73 75 76 72 68 56 50 47 61 88 89 87 88 91 93
131 133 134 129 124 120 118 116 111 113 113 113 110 108 107 105 102 99 99 96 90 88 84 81 76 72 70 68 72 76 76 73 66 57 50 52 81 92 92 89 86 88 92
135 131 130 130 126 124 123 121 116 114 113 115 115 112 110 109 106 104 102 100 95 93 87 82 78 74 70 66 69 72 73 69 71 65 54 55 85 91 93 93 91 89 90
127 123 117 126 128 131 128 126 126 122 119 118 121 120 115 112 109 105 103 104 100 96 92 84 79 77 72 70 69 71 72 70 62 55 65 57 83 88 92 94 90 88 90
127 127 132 130 126 135 133 134 135 134 131 128 126 124 120 118 116 110 105 105 102 98 93 83 76 73 72 73 73 72 69 64 57 49 43 71 81 87 93 92 90 87 88
132 144 151 152 153 153 155 149 145 147 145 139 136 136 119 97 99 112 116 110 103 94 89 83 75 69 67 66 70 67 62 56 59 52 45 72 81 86 89 89 88 87 89
160 167 165 170 174 170 161 132 140 150 140 135 138 132 124 117 121 118 114 112 101 90 78 74 64 61 60 52 59 61 57 57 54 52 60 71 79 85 87 86 86 87 89
175 169 165 168 166 160 149 143 134 102 107 116 125 139 126 120 103 80 76 70 61 71 55 51 52 57 67 68 64 63 64 62 52 46 59 74 77 81 84 86 84 84 84
165 170 163 154 150 154 144 142 141 130 128 131 142 135 126 118 104 94 88 83 65 72 71 61 71 75 76 77 78 75 69 63 54 46 60 75 77 79 80 79 81 80 83
148 151 148 149 148 146 135 140 133 146 142 144 128 134 134 127 126 110 103 91 82 83 83 77 73 73 74 75 77 79 75 69 65 54 52 72 75 76 77 77 78 77 81
146 136 139 147 148 139 135 138 142 135 123 115 122 133 134 131 123 109 102 90 84 88 87 85 83 81 76 77 73 75 77 76 73 63 52 61 69 70 73 76 77 79 84
154 136 132 141 140 135 139 144 125 120 109 97 101 119 122 122 121 110 103 96 94 97 91 82 74 73 76 71 63 62 70 73 76 71 62 52 50 58 65 69 72 76 83
142 132 130 133 131 132 131 127 111 109 101 93 90 99 113 117 118 113 108 98 96 93 89 87 75 72 65 67 64 55 57 64 73 77 69 57 49 48 55 64 67 71 80
144 137 131 131 133 132 120 108 102 96 93 96 94 88 96 104 111 115 113 111 105 92 86 93 79 87 86 77 76 63 49 54 56 72 71 68 61 54 47 57 60 63 74
138 138 136 133 129 116 101 88 77 72 71 73 89 97 98 107 115 113 114 114 109 97 83 85 91 76 86 87 81 63 45 47 48 61 67 71 67 65 58 52 46 47 61
134 141 141 138 138 126 115 108 101 101 98 92 100 105 110 114 117 117 119 115 109 109 112 106 102 84 69 82 78 51 29 36 48 45 46 60 56 56 65 60 52 44 46
153 159 140 144 152 150 146 142 148 145 142 136 103 87 108 125 129 127 125 127 122 114 105 103 108 106 94 77 100 87 35 9 12 28 37 57 49 50 60 65 60 61 53
158 165 160 168 168 163 150 123 100 77 62 54 56 69 128 137 128 128 133 133 131 129 134 133 131 131 149 295 93 126 128 187 313 348 17 38 42 54 56 66 71 66 68
176 173 165 172 171 167 150 145 151 154 169 195 186 180 160 132 131 135 139 140 145 142 145 155 142 137 140 160 9 86 139 152 146 345 341 359 22 47 51 75 73 64 64
177 176 171 164 166 164 156 160 161 163 180 171 145 141 136 127 142 147 146 148 154 154 161 153 138 137 140 146 150 131 100 87 109 132 189 330 353 348 20 79 84 73 69
173 167 162 159 164 163 158 158 164 169 168 156 157 161 169 169 163 165 154 155 161 163 169 168 156 147 144 136 131 129 140 142 158 139 152 202 299 315 345 17 82 106 90